Weather History for Olathe, KS

Change the Weather History Date:

Monday, December 10, 2012

  Actual Average Record
Temperature  
Mean Temperature 23 °F 34 °F  
Max Temperature 28 °F 42 °F 67 °F (1970)
Min Temperature 17 °F 25 °F 2 °F (1972)
Degree Days  
Heating Degree Days 42 32  
Month to date heating degree days 191 300  
Since 1 July heating degree days 1122 1255  
Cooling Degree Days 0 0  
Month to date cooling degree days 0 0  
Year to date cooling degree days 1831 1349  
Moisture  
Dew Point 11 °F    
Average Humidity 60    
Maximum Humidity 73    
Minimum Humidity 46    
Precipitation  
Precipitation 0.00 in 0.05 in 0.87 in (1971)
Month to date precipitation 0.03 0.52  
Year to date precipitation 24.30 38.92  
Sea Level Pressure  
Sea Level Pressure 30.07 in    
Wind  
Wind Speed 8 mph (West)    
Max Wind Speed 20 mph    
Max Gust Speed 26 mph    
Visibility 10 miles    
Events      
T = Trace of Precipitation, MM = Missing Value Source: NWS Daily Summary

Daily Weather History Graph

Daily Weather History Graph

Search for Another Location

Airport:

Trip Planner

Search our weather history database for the weather conditions in past years. The results will help you decide how hot, cold, wet, or windy it might be!

Date:

Astronomy

Dec. 10, 2012 Rise Set
Actual Time 7:26 AM CST 4:57 PM CST
Civil Twilight 6:57 AM CST 5:26 PM CST
Nautical Twilight 6:23 AM CST 6:00 PM CST
Astronomical Twilight 5:51 AM CST 6:32 PM CST
Moon 4:12 AM CST (12/10) 2:46 PM CST (12/10)
Length of Visible Light 10h 29m
Length of Day
9h 30m
Waning Crescent, 10% of the Moon is Illuminated
Dec 10
Waning Crescent
Dec 13
New
Dec 19
First Quarter
Dec 28
Full
Jan 4
Last Quarter

Hourly Weather History & Observations

Time (CST) Temp. Windchill Dew Point Humidity Pressure Visibility Wind Dir Wind Speed Gust Speed Precip Events Conditions
12:53 AM 19.9 °F 8.6 °F 10.0 °F 65% 30.07 in 10.0 mi NW 10.4 mph 20.7 mph N/A   Overcast
1:39 AM 21.2 °F 8.3 °F 10.4 °F 63% 30.04 in 10.0 mi NW 13.8 mph 23.0 mph N/A   Overcast
1:53 AM 19.9 °F 5.2 °F 10.0 °F 65% 30.05 in 10.0 mi NW 17.3 mph 24.2 mph N/A   Overcast
2:53 AM 19.9 °F 6.7 °F 10.9 °F 68% 30.06 in 10.0 mi NW 13.8 mph 24.2 mph N/A   Overcast
3:53 AM 19.9 °F 7.3 °F 12.0 °F 71% 30.06 in 10.0 mi NW 12.7 mph - N/A   Overcast
4:16 AM 19.4 °F 6.0 °F 12.2 °F 74% 30.02 in 10.0 mi NW 13.8 mph 23.0 mph N/A   Overcast
4:53 AM 19.9 °F 6.7 °F 12.0 °F 71% 30.08 in 10.0 mi NNW 13.8 mph 21.9 mph N/A   Overcast
5:53 AM 19.9 °F 7.9 °F 10.9 °F 68% 30.08 in 10.0 mi WNW 11.5 mph 20.7 mph N/A   Overcast
6:53 AM 19.9 °F 8.6 °F 9.0 °F 62% 30.10 in 10.0 mi NW 10.4 mph - N/A   Overcast
7:53 AM 18.0 °F 6.9 °F 8.1 °F 65% 30.12 in 10.0 mi WNW 9.2 mph - N/A   Overcast
8:53 AM 19.0 °F 8.2 °F 8.1 °F 62% 30.12 in 10.0 mi NW 9.2 mph - N/A   Overcast
9:53 AM 19.9 °F 9.3 °F 9.0 °F 62% 30.13 in 10.0 mi NW 9.2 mph - N/A   Overcast
10:53 AM 21.0 °F 11.4 °F 9.0 °F 60% 30.13 in 10.0 mi NW 8.1 mph - N/A   Overcast
11:53 AM 23.0 °F 13.1 °F 10.9 °F 60% 30.11 in 10.0 mi West 9.2 mph - N/A   Overcast
12:53 PM 24.1 °F 16.0 °F 12.0 °F 60% 30.09 in 10.0 mi West 6.9 mph - N/A   Overcast
1:22 PM 24.8 °F 16.1 °F 12.2 °F 59% 30.03 in 10.0 mi WNW 8.1 mph - N/A   Partly Cloudy
1:53 PM 26.1 °F 18.4 °F 12.9 °F 58% 30.07 in 10.0 mi West 6.9 mph - N/A   Clear
2:53 PM 27.0 °F 21.6 °F 12.9 °F 56% 30.06 in 10.0 mi West 4.6 mph - N/A   Clear
3:53 PM 27.0 °F 20.5 °F 10.9 °F 51% 30.05 in 10.0 mi West 5.8 mph - N/A   Clear
4:53 PM 26.1 °F 21.9 °F 9.0 °F 49% 30.05 in 10.0 mi Variable 3.5 mph - N/A   Clear
5:53 PM 21.9 °F 17.2 °F 10.0 °F 60% 30.04 in 10.0 mi South 3.5 mph - N/A   Clear
6:53 PM 21.9 °F 17.2 °F 10.0 °F 60% 30.04 in 10.0 mi SSW 3.5 mph - N/A   Clear
7:53 PM 19.9 °F 13.4 °F 10.9 °F 68% 30.06 in 10.0 mi South 4.6 mph - N/A   Clear
8:53 PM 19.9 °F 12.1 °F 10.9 °F 68% 30.06 in 10.0 mi SSW 5.8 mph - N/A   Clear
9:53 PM 19.0 °F 12.3 °F 10.0 °F 68% 30.05 in 10.0 mi South 4.6 mph - N/A   Clear
10:53 PM 19.0 °F 11.1 °F 10.0 °F 68% 30.05 in 10.0 mi SSW 5.8 mph - N/A   Clear
11:53 PM 19.0 °F 11.1 °F 10.0 °F 68% 30.04 in 10.0 mi SSW 5.8 mph - N/A   Clear